Location: Newark
(60.1950°N, 25.0308°E)
Time: 21:42:24
(UTC+00:00)

STRAND 1 - Visible Passes

Search period start: 12 December 2019 00:00
Search period end: 22 December 2019 00:00
Orbit: 767 x 782 km, 98.5° (Epoch: 12 December)

Date Brightness Start Highest point End Pass type
(mag) Time Alt. Az. Time Alt. Az. Time Alt. Az.
12 Dec ? 01:21:41 10° NE 01:22:59 11° NNE 01:23:55 10° NNE visible
12 Dec ? 02:56:27 10° ESE 03:00:44 28° NE 03:04:19 13° N visible
12 Dec ? 04:34:22 10° SSE 04:39:30 84° WSW 04:44:40 10° NNW visible
12 Dec ? 06:15:42 10° SW 06:19:29 20° W 06:23:15 10° NW visible
13 Dec ? 02:23:32 10° E 02:27:08 20° NE 02:29:50 13° N visible
13 Dec ? 04:00:28 10° SE 04:05:31 62° ENE 04:10:13 12° NNW visible
13 Dec ? 05:40:27 10° SSW 05:45:03 33° W 05:49:40 10° NNW visible
14 Dec ? 01:50:59 10° ENE 01:53:37 14° NE 01:55:21 12° NNE visible
14 Dec ? 03:26:55 10° SE 03:31:39 40° ENE 03:35:45 14° N visible
14 Dec ? 05:05:46 10° S 05:10:47 53° W 05:15:49 10° NNW visible
15 Dec ? 01:19:05 10° NE 01:20:12 11° NNE 01:20:52 10° NNE visible
15 Dec ? 02:53:42 10° ESE 02:57:56 27° NE 03:01:16 14° N visible
15 Dec ? 04:31:32 10° SSE 04:36:40 87° WSW 04:41:40 11° NNW visible
15 Dec ? 06:12:45 10° SW 06:16:37 21° W 06:20:28 10° NW visible
16 Dec ? 02:20:48 10° E 02:24:20 19° NE 02:26:48 14° N visible
16 Dec ? 03:57:40 10° SE 04:02:41 60° ENE 04:07:11 13° NNW visible
16 Dec ? 05:37:33 10° SSW 05:42:11 34° W 05:46:51 10° NNW visible
17 Dec ? 01:48:18 10° ENE 01:50:50 14° NE 01:52:20 12° NNE visible
17 Dec ? 03:24:09 10° ESE 03:28:50 38° ENE 03:32:43 14° N visible
17 Dec ? 05:02:54 10° S 05:07:56 56° WSW 05:12:59 10° NNW visible
18 Dec ? 01:16:32 10° NE 01:17:26 10° NNE 01:17:52 10° NNE visible
18 Dec ? 02:50:57 10° ESE 02:55:07 26° NE 02:58:16 15° N visible
18 Dec ? 04:28:42 10° SSE 04:33:50 90° WNW 04:38:40 12° NNW visible
18 Dec ? 06:09:48 10° SW 06:13:44 22° W 06:17:41 10° NW visible
19 Dec ? 02:18:05 10° E 02:21:32 19° NE 02:23:48 14° N visible
19 Dec ? 03:54:51 10° SE 03:59:52 57° ENE 04:04:12 14° NNW visible
19 Dec ? 05:34:39 10° SSW 05:39:20 35° W 05:44:03 10° NNW visible
20 Dec ? 01:45:36 10° ENE 01:48:02 14° NNE 01:49:21 12° NNE visible
20 Dec ? 03:21:22 10° ESE 03:26:01 37° NE 03:29:45 15° N visible
20 Dec ? 05:00:03 10° S 05:05:05 58° WSW 05:10:08 10° NNW visible
21 Dec ? 01:14:03 10° NNE 01:14:39 10° NNE 01:14:54 10° NNE visible
21 Dec ? 02:48:12 10° ESE 02:52:19 25° NE 02:55:18 15° N visible
21 Dec ? 04:25:52 10° SSE 04:30:59 87° ENE 04:35:41 13° NNW visible
21 Dec ? 06:06:51 10° SW 06:10:51 23° W 06:14:53 10° NW visible
